EZY23UZ EGCC-LIRP

Flight info

Callsign EZY23UZ
Flight time 1h 55m
Altitude 37000
Route LISTO L612 HON L15 MOTOX DCT RUCAC DCT LESDO DCT BUBLI DCT LUVAL DCT SHARA DCT DEVDI DCT ODINA DCT SRN DCT ROBAS DCT OSBUL DCT EKPAL DCT MIVKI
Aircraft A320/M-SDE3FGHIRWY/LB1

Departure

Time 2026-04-22 05:32
Airport Manchester Airport (EGCC)

Arrival

Time 2026-04-22 07:27
Airport Pisa International Airport (LIRP)
Time Latitude Longitude Altitude Speed Heading
2026-04-22 05:11 53.36792 -2.28681 255 ft 0 kts 315°
2026-04-22 05:21 53.36785 -2.28669 255 ft 4 kts 315°
2026-04-22 05:21 53.36769 -2.28642 255 ft 3 kts 314°
2026-04-22 05:21 53.36761 -2.28619 255 ft 4 kts 234°
2026-04-22 05:21 53.36770 -2.28601 255 ft 0 kts 224°
2026-04-22 05:22 53.36752 -2.28630 255 ft 4 kts 224°
2026-04-22 05:22 53.36733 -2.28661 255 ft 4 kts 224°
2026-04-22 05:22 53.36714 -2.28694 255 ft 4 kts 224°
2026-04-22 05:22 53.36699 -2.28718 255 ft 0 kts 224°
2026-04-22 05:24 53.36681 -2.28746 255 ft 7 kts 220°
2026-04-22 05:25 53.36617 -2.28783 255 ft 12 kts 191°
2026-04-22 05:25 53.36544 -2.28697 255 ft 15 kts 135°
2026-04-22 05:25 53.36463 -2.28561 255 ft 18 kts 134°
2026-04-22 05:25 53.36392 -2.28375 255 ft 20 kts 119°
2026-04-22 05:26 53.36327 -2.28255 255 ft 21 kts 135°
2026-04-22 05:26 53.36227 -2.28087 255 ft 21 kts 134°
2026-04-22 05:26 53.36122 -2.27925 255 ft 21 kts 141°
2026-04-22 05:26 53.36008 -2.27780 255 ft 19 kts 143°
2026-04-22 05:27 53.35873 -2.27728 255 ft 14 kts 182°
2026-04-22 05:27 53.35804 -2.27737 251 ft 16 kts 186°
2026-04-22 05:27 53.35681 -2.27760 244 ft 19 kts 186°
2026-04-22 05:27 53.35553 -2.27786 238 ft 16 kts 194°
2026-04-22 05:28 53.35472 -2.27890 239 ft 13 kts 230°
2026-04-22 05:28 53.35404 -2.28005 237 ft 14 kts 224°
2026-04-22 05:28 53.35334 -2.28117 240 ft 14 kts 224°
2026-04-22 05:28 53.35261 -2.28240 232 ft 15 kts 230°
2026-04-22 05:29 53.35199 -2.28368 230 ft 15 kts 231°
2026-04-22 05:29 53.35130 -2.28511 227 ft 16 kts 231°
2026-04-22 05:29 53.35069 -2.28636 229 ft 13 kts 230°
2026-04-22 05:29 53.34997 -2.28772 227 ft 19 kts 226°
2026-04-22 05:30 53.34907 -2.28929 224 ft 19 kts 227°
2026-04-22 05:30 53.34813 -2.29101 217 ft 21 kts 229°
2026-04-22 05:30 53.34719 -2.29291 216 ft 16 kts 225°
2026-04-22 05:30 53.34623 -2.29344 215 ft 13 kts 178°
2026-04-22 05:31 53.34550 -2.29298 215 ft 11 kts 143°
2026-04-22 05:31 53.34548 -2.29206 214 ft 10 kts 52°
2026-04-22 05:31 53.34624 -2.29049 215 ft 39 kts 51°
2026-04-22 05:31 53.34943 -2.28388 233 ft 104 kts 51°
2026-04-22 05:32 53.35518 -2.27197 261 ft 154 kts 51°
2026-04-22 05:32 53.36187 -2.25805 970 ft 150 kts 52°
2026-04-22 05:32 53.36851 -2.24427 1662 ft 158 kts 55°
2026-04-22 05:32 53.37479 -2.22797 2001 ft 177 kts 74°
2026-04-22 05:33 53.37484 -2.20642 2336 ft 202 kts 107°
2026-04-22 05:33 53.36567 -2.18723 2869 ft 231 kts 139°
2026-04-22 05:33 53.35189 -2.17259 3741 ft 239 kts 149°
2026-04-22 05:33 53.33503 -2.16754 4619 ft 256 kts 178°
2026-04-22 05:34 53.31715 -2.16998 5597 ft 259 kts 181°
2026-04-22 05:34 53.29914 -2.17308 6528 ft 262 kts 182°
2026-04-22 05:34 53.28090 -2.17639 7399 ft 265 kts 182°
2026-04-22 05:34 53.26240 -2.17972 8251 ft 269 kts 182°
2026-04-22 05:35 53.24363 -2.18297 9098 ft 273 kts 182°
2026-04-22 05:35 53.22463 -2.18614 9970 ft 277 kts 182°
2026-04-22 05:35 53.20529 -2.18925 10684 ft 285 kts 181°
2026-04-22 05:35 53.18472 -2.19240 10953 ft 308 kts 182°
2026-04-22 05:36 53.16283 -2.19548 11479 ft 319 kts 179°
2026-04-22 05:36 53.14094 -2.19304 12189 ft 320 kts 167°
2026-04-22 05:36 53.11950 -2.18274 12923 ft 322 kts 156°
2026-04-22 05:36 53.09870 -2.16825 13670 ft 325 kts 155°
2026-04-22 05:37 53.07770 -2.15362 14379 ft 329 kts 155°
2026-04-22 05:37 53.05644 -2.13885 15007 ft 333 kts 156°
2026-04-22 05:37 53.03494 -2.12394 15630 ft 337 kts 156°
2026-04-22 05:37 53.01319 -2.10889 16273 ft 340 kts 156°
2026-04-22 05:38 52.99128 -2.09380 16933 ft 343 kts 156°
2026-04-22 05:38 52.96905 -2.07856 17581 ft 346 kts 156°
2026-04-22 05:38 52.94666 -2.06324 18206 ft 350 kts 156°
2026-04-22 05:38 52.92396 -2.04770 18738 ft 355 kts 157°
2026-04-22 05:39 52.90113 -2.03207 19195 ft 361 kts 157°
2026-04-22 05:39 52.87742 -2.01582 19649 ft 367 kts 157°
2026-04-22 05:39 52.85394 -1.99968 20081 ft 373 kts 157°
2026-04-22 05:39 52.82967 -1.98302 20505 ft 379 kts 158°
2026-04-22 05:40 52.80507 -1.96619 20952 ft 385 kts 158°
2026-04-22 05:40 52.78855 -1.95494 21230 ft 389 kts 158°
2026-04-22 05:40 52.77322 -1.94449 21423 ft 395 kts 158°
2026-04-22 05:40 52.74767 -1.92711 21878 ft 399 kts 158°
2026-04-22 05:41 52.72184 -1.90961 22292 ft 404 kts 158°
2026-04-22 05:41 52.69565 -1.89189 22710 ft 410 kts 158°
2026-04-22 05:41 52.66909 -1.87392 23119 ft 415 kts 158°
2026-04-22 05:41 52.64226 -1.85577 23526 ft 420 kts 159°
2026-04-22 05:42 52.61504 -1.83737 23925 ft 425 kts 159°
2026-04-22 05:42 52.58753 -1.81877 24279 ft 429 kts 159°
2026-04-22 05:42 52.55981 -1.80004 24657 ft 433 kts 159°
2026-04-22 05:42 52.53189 -1.78120 25047 ft 435 kts 159°
2026-04-22 05:43 52.50379 -1.76228 25421 ft 438 kts 159°
2026-04-22 05:43 52.47555 -1.74332 25827 ft 440 kts 159°
2026-04-22 05:43 52.44717 -1.72431 26218 ft 442 kts 159°
2026-04-22 05:43 52.41862 -1.70521 26594 ft 444 kts 160°
2026-04-22 05:44 52.38995 -1.68580 26958 ft 447 kts 157°
2026-04-22 05:44 52.36254 -1.66138 27315 ft 451 kts 148°
2026-04-22 05:44 52.33789 -1.63042 27660 ft 455 kts 138°
2026-04-22 05:44 52.31564 -1.59344 28007 ft 458 kts 133°
2026-04-22 05:45 52.29444 -1.55454 28362 ft 460 kts 126°
2026-04-22 05:45 52.27614 -1.51133 28690 ft 463 kts 124°
2026-04-22 05:45 52.25798 -1.46780 29065 ft 465 kts 123°
2026-04-22 05:45 52.23969 -1.42400 29342 ft 469 kts 123°
2026-04-22 05:46 52.22123 -1.37991 29643 ft 473 kts 124°
2026-04-22 05:46 52.20257 -1.33554 29961 ft 475 kts 124°
2026-04-22 05:46 52.18379 -1.29098 30279 ft 478 kts 124°
2026-04-22 05:46 52.16492 -1.24620 30570 ft 481 kts 124°
2026-04-22 05:47 52.14594 -1.20124 30831 ft 483 kts 124°
2026-04-22 05:47 52.12687 -1.15619 31094 ft 484 kts 124°
2026-04-22 05:47 52.10767 -1.11091 31351 ft 486 kts 124°
2026-04-22 05:47 52.08943 -1.06792 31592 ft 488 kts 124°
2026-04-22 05:48 52.07013 -1.02243 31867 ft 489 kts 124°
2026-04-22 05:48 52.05085 -0.97711 32254 ft 487 kts 124°
2026-04-22 05:48 52.03153 -0.93189 32555 ft 488 kts 124°
2026-04-22 05:48 52.01217 -0.88667 32877 ft 487 kts 124°
2026-04-22 05:49 51.99281 -0.84145 33243 ft 486 kts 124°
2026-04-22 05:49 51.97349 -0.79646 33628 ft 485 kts 124°
2026-04-22 05:49 51.95418 -0.75165 34006 ft 484 kts 124°
2026-04-22 05:49 51.93491 -0.70697 34377 ft 483 kts 124°
2026-04-22 05:50 51.91563 -0.66230 34695 ft 482 kts 124°
2026-04-22 05:50 51.89644 -0.61787 35024 ft 480 kts 124°
2026-04-22 05:50 51.87752 -0.57413 35353 ft 478 kts 124°
2026-04-22 05:50 51.85844 -0.53017 35692 ft 476 kts 124°
2026-04-22 05:51 51.83940 -0.48639 36008 ft 474 kts 124°
2026-04-22 05:51 51.82049 -0.44301 36327 ft 472 kts 124°
2026-04-22 05:51 51.80164 -0.39975 36619 ft 470 kts 125°
2026-04-22 05:51 51.78285 -0.35661 36878 ft 469 kts 125°
2026-04-22 05:52 51.76411 -0.31366 37226 ft 467 kts 125°
2026-04-22 05:52 51.74540 -0.27086 37405 ft 466 kts 125°
2026-04-22 05:52 51.70820 -0.18603 37437 ft 462 kts 125°
2026-04-22 05:53 51.67106 -0.10167 37427 ft 461 kts 125°
2026-04-22 05:53 51.63393 -0.01754 37409 ft 461 kts 125°
2026-04-22 05:54 51.59665 0.06640 37329 ft 461 kts 124°
2026-04-22 05:54 51.55960 0.14964 37323 ft 461 kts 125°
2026-04-22 05:55 51.52223 0.23341 37321 ft 461 kts 125°
2026-04-22 05:55 51.48478 0.31714 37321 ft 462 kts 125°
2026-04-22 05:56 51.44725 0.40061 37316 ft 462 kts 125°
2026-04-22 05:56 51.40963 0.48393 37337 ft 462 kts 125°
2026-04-22 05:57 51.37198 0.56726 37329 ft 462 kts 125°
2026-04-22 05:57 51.33421 0.65068 37319 ft 462 kts 125°
2026-04-22 05:58 51.31534 0.69222 37455 ft 462 kts 126°
2026-04-22 05:58 51.29641 0.73377 37443 ft 463 kts 126°
2026-04-22 05:58 51.25847 0.81688 37409 ft 463 kts 126°
2026-04-22 05:59 51.22040 0.89984 37363 ft 463 kts 126°
2026-04-22 05:59 51.18248 0.98228 37319 ft 464 kts 125°
2026-04-22 06:00 51.14459 1.06452 37304 ft 464 kts 125°
2026-04-22 06:00 51.10629 1.14744 37307 ft 465 kts 125°
2026-04-22 06:01 51.06792 1.23037 37308 ft 465 kts 126°
2026-04-22 06:01 51.02940 1.31315 37308 ft 465 kts 126°
2026-04-22 06:02 50.99085 1.39576 37313 ft 465 kts 126°
2026-04-22 06:02 50.95457 1.48052 37321 ft 463 kts 115°
2026-04-22 06:03 50.92875 1.57387 37312 ft 462 kts 111°
2026-04-22 06:03 50.90333 1.66751 37316 ft 463 kts 111°
2026-04-22 06:04 50.87128 1.75572 37309 ft 465 kts 128°
2026-04-22 06:04 50.82586 1.82855 37284 ft 466 kts 136°
2026-04-22 06:05 50.77894 1.89916 37330 ft 466 kts 136°
2026-04-22 06:05 50.73195 1.96979 37319 ft 466 kts 136°
2026-04-22 06:06 50.68490 2.04041 37306 ft 466 kts 136°
2026-04-22 06:06 50.63782 2.11089 37290 ft 466 kts 136°
2026-04-22 06:07 50.59069 2.18115 37269 ft 467 kts 136°
2026-04-22 06:07 50.54370 2.25083 37264 ft 468 kts 136°
2026-04-22 06:08 50.49627 2.32090 37294 ft 468 kts 136°
2026-04-22 06:08 50.44882 2.39097 37287 ft 468 kts 136°
2026-04-22 06:09 50.40132 2.46091 37289 ft 468 kts 136°
2026-04-22 06:09 50.35382 2.53076 37257 ft 469 kts 136°
2026-04-22 06:10 50.30619 2.60061 37268 ft 470 kts 136°
2026-04-22 06:10 50.25847 2.67038 37266 ft 470 kts 136°
2026-04-22 06:11 50.21062 2.74010 37274 ft 470 kts 137°
2026-04-22 06:11 50.16271 2.80963 37298 ft 470 kts 136°
2026-04-22 06:12 50.11480 2.87904 37268 ft 470 kts 137°
2026-04-22 06:12 50.07489 2.93672 37261 ft 471 kts 137°
2026-04-22 06:13 50.02681 3.00604 37263 ft 471 kts 137°
2026-04-22 06:13 49.97076 3.08638 37261 ft 472 kts 137°
2026-04-22 06:14 49.93031 3.14420 37264 ft 472 kts 137°
2026-04-22 06:14 49.88206 3.21323 37261 ft 472 kts 137°
2026-04-22 06:15 49.83368 3.28209 37261 ft 472 kts 137°
2026-04-22 06:15 49.78053 3.34114 37265 ft 471 kts 153°
2026-04-22 06:16 49.72291 3.38802 37267 ft 471 kts 153°
2026-04-22 06:16 49.66495 3.43539 37233 ft 472 kts 153°
2026-04-22 06:17 49.60687 3.48277 37247 ft 473 kts 153°
2026-04-22 06:17 49.54864 3.53016 37242 ft 474 kts 153°
2026-04-22 06:18 49.49030 3.57752 37245 ft 474 kts 154°
2026-04-22 06:18 49.43191 3.62474 37256 ft 474 kts 154°
2026-04-22 06:19 49.37347 3.67188 37239 ft 474 kts 154°
2026-04-22 06:19 49.31500 3.71890 37234 ft 475 kts 154°
2026-04-22 06:20 49.25648 3.76587 37232 ft 475 kts 154°
2026-04-22 06:20 49.19795 3.81267 37214 ft 475 kts 154°
2026-04-22 06:21 49.13932 3.85945 37226 ft 476 kts 154°
2026-04-22 06:21 49.08061 3.90622 37227 ft 476 kts 154°
2026-04-22 06:22 49.02174 3.95290 37230 ft 477 kts 154°
2026-04-22 06:22 48.96286 3.99954 37204 ft 477 kts 154°
2026-04-22 06:23 48.90389 4.04604 37198 ft 478 kts 155°
2026-04-22 06:23 48.84487 4.09245 37208 ft 478 kts 155°
2026-04-22 06:24 48.78777 4.14273 37212 ft 480 kts 143°
2026-04-22 06:24 48.76273 4.17619 37213 ft 480 kts 134°
2026-04-22 06:25 48.72198 4.25609 37212 ft 480 kts 124°
2026-04-22 06:25 48.68334 4.33856 37230 ft 480 kts 124°
2026-04-22 06:26 48.64453 4.42079 37229 ft 480 kts 124°
2026-04-22 06:26 48.60568 4.50292 37228 ft 480 kts 124°
2026-04-22 06:27 48.56671 4.58495 37215 ft 481 kts 124°
2026-04-22 06:27 48.52768 4.66688 37191 ft 481 kts 125°
2026-04-22 06:28 48.48862 4.74893 37175 ft 482 kts 125°
2026-04-22 06:28 48.44943 4.83095 37189 ft 482 kts 125°
2026-04-22 06:29 48.41009 4.91281 37183 ft 483 kts 125°
2026-04-22 06:29 48.37075 4.99457 37178 ft 483 kts 125°
2026-04-22 06:30 48.33132 5.07629 37178 ft 483 kts 125°
2026-04-22 06:30 48.29520 5.16100 37193 ft 481 kts 112°
2026-04-22 06:31 48.27358 5.25533 37180 ft 477 kts 103°
2026-04-22 06:31 48.25450 5.35079 37178 ft 478 kts 104°
2026-04-22 06:32 48.23528 5.44555 37179 ft 478 kts 104°
2026-04-22 06:32 48.21577 5.54097 37181 ft 478 kts 104°
2026-04-22 06:33 48.19624 5.63636 37203 ft 478 kts 104°
2026-04-22 06:33 48.17675 5.73169 37201 ft 478 kts 104°
2026-04-22 06:34 48.15716 5.82682 37194 ft 478 kts 104°
2026-04-22 06:34 48.13753 5.92190 37194 ft 478 kts 104°
2026-04-22 06:35 48.11778 6.01687 37220 ft 478 kts 104°
2026-04-22 06:35 48.09798 6.11157 37210 ft 477 kts 104°
2026-04-22 06:36 48.07808 6.20633 37202 ft 476 kts 104°
2026-04-22 06:36 48.05813 6.30073 37195 ft 476 kts 105°
2026-04-22 06:37 48.03813 6.39509 37194 ft 477 kts 104°
2026-04-22 06:37 48.01812 6.48952 37183 ft 477 kts 104°
2026-04-22 06:38 47.99797 6.58391 37177 ft 477 kts 105°
2026-04-22 06:38 47.97759 6.67807 37171 ft 477 kts 106°
2026-04-22 06:39 47.95427 6.77096 37170 ft 479 kts 110°
2026-04-22 06:39 47.92851 6.86191 37201 ft 479 kts 110°
2026-04-22 06:40 47.90269 6.95334 37203 ft 477 kts 110°
2026-04-22 06:40 47.87768 7.04479 37206 ft 476 kts 109°
2026-04-22 06:41 47.85285 7.13622 37216 ft 476 kts 109°
2026-04-22 06:41 47.82784 7.22747 37238 ft 476 kts 110°
2026-04-22 06:42 47.80262 7.31852 37223 ft 475 kts 110°
2026-04-22 06:42 47.77742 7.40932 37217 ft 475 kts 110°
2026-04-22 06:43 47.74810 7.49731 37185 ft 479 kts 124°
2026-04-22 06:43 47.72686 7.53542 37180 ft 480 kts 135°
2026-04-22 06:43 47.70168 7.56787 37180 ft 480 kts 145°
2026-04-22 06:44 47.64332 7.61506 37196 ft 478 kts 156°
2026-04-22 06:44 47.58319 7.65731 37197 ft 479 kts 156°
2026-04-22 06:45 47.52297 7.69975 37171 ft 480 kts 156°
2026-04-22 06:45 47.46261 7.74211 37167 ft 481 kts 156°
2026-04-22 06:46 47.40198 7.78440 37172 ft 482 kts 156°
2026-04-22 06:46 47.34163 7.82640 37178 ft 483 kts 156°
2026-04-22 06:47 47.28080 7.86867 37159 ft 484 kts 157°
2026-04-22 06:47 47.21977 7.91089 37167 ft 485 kts 157°
2026-04-22 06:48 47.15863 7.95301 37168 ft 486 kts 157°
2026-04-22 06:48 47.09732 7.99527 37147 ft 486 kts 157°
2026-04-22 06:49 47.03601 8.03749 37151 ft 488 kts 157°
2026-04-22 06:49 46.97447 8.07974 37156 ft 489 kts 157°
2026-04-22 06:50 46.91283 8.12186 37160 ft 489 kts 157°
2026-04-22 06:50 46.85116 8.16396 37125 ft 489 kts 158°
2026-04-22 06:51 46.78937 8.20603 37158 ft 491 kts 157°
2026-04-22 06:51 46.72748 8.24797 37153 ft 490 kts 158°
2026-04-22 06:52 46.66552 8.28987 37134 ft 491 kts 158°
2026-04-22 06:52 46.60367 8.33164 37141 ft 490 kts 158°
2026-04-22 06:53 46.54175 8.37338 37144 ft 490 kts 158°
2026-04-22 06:53 46.48030 8.41470 37163 ft 490 kts 158°
2026-04-22 06:54 46.41797 8.45644 37166 ft 491 kts 158°
2026-04-22 06:54 46.35598 8.49780 37174 ft 490 kts 158°
2026-04-22 06:55 46.29410 8.53907 37192 ft 490 kts 158°
2026-04-22 06:55 46.23219 8.58038 37170 ft 490 kts 158°
2026-04-22 06:56 46.17034 8.62143 37178 ft 489 kts 158°
2026-04-22 06:56 46.10848 8.66226 37177 ft 489 kts 158°
2026-04-22 06:57 46.04771 8.70637 37178 ft 489 kts 154°
2026-04-22 06:57 45.98831 8.75450 37176 ft 490 kts 153°
2026-04-22 06:58 45.92886 8.80267 37164 ft 491 kts 153°
2026-04-22 06:58 45.86927 8.84930 37160 ft 491 kts 154°
2026-04-22 06:59 45.80903 8.89558 37119 ft 491 kts 154°
2026-04-22 06:59 45.74879 8.94200 37130 ft 492 kts 154°
2026-04-22 07:00 45.68838 8.98820 37136 ft 492 kts 155°
2026-04-22 07:00 45.63804 9.02627 37184 ft 493 kts 155°
2026-04-22 07:01 45.57741 9.07217 37151 ft 493 kts 155°
2026-04-22 07:01 45.51680 9.11808 37157 ft 494 kts 155°
2026-04-22 07:02 45.45603 9.16387 37161 ft 494 kts 155°
2026-04-22 07:02 45.39524 9.20961 37137 ft 494 kts 155°
2026-04-22 07:03 45.33438 9.25530 37149 ft 495 kts 155°
2026-04-22 07:03 45.27349 9.30097 37195 ft 495 kts 155°
2026-04-22 07:04 45.21253 9.34663 36925 ft 495 kts 155°
2026-04-22 07:04 45.18204 9.36941 36628 ft 496 kts 155°
2026-04-22 07:04 45.15156 9.39218 36144 ft 495 kts 155°
2026-04-22 07:04 45.12112 9.41492 35552 ft 494 kts 156°
2026-04-22 07:05 45.09072 9.43756 34959 ft 494 kts 156°
2026-04-22 07:05 45.06031 9.46010 34358 ft 494 kts 157°
2026-04-22 07:05 45.02980 9.48266 33705 ft 495 kts 158°
2026-04-22 07:05 44.99933 9.50516 33097 ft 493 kts 157°
2026-04-22 07:06 44.96897 9.52759 32489 ft 491 kts 157°
2026-04-22 07:06 44.93880 9.54991 31916 ft 490 kts 157°
2026-04-22 07:06 44.90866 9.57223 31368 ft 489 kts 157°
2026-04-22 07:06 44.87850 9.59453 30752 ft 489 kts 157°
2026-04-22 07:07 44.84837 9.61674 30193 ft 488 kts 157°
2026-04-22 07:07 44.81835 9.63881 29591 ft 486 kts 157°
2026-04-22 07:07 44.78852 9.66074 29055 ft 482 kts 157°
2026-04-22 07:07 44.75896 9.68244 28534 ft 477 kts 157°
2026-04-22 07:08 44.72967 9.70394 28018 ft 473 kts 157°
2026-04-22 07:08 44.70061 9.72522 27488 ft 469 kts 158°
2026-04-22 07:08 44.67178 9.74632 26963 ft 466 kts 158°
2026-04-22 07:08 44.64312 9.76728 26412 ft 463 kts 158°
2026-04-22 07:09 44.61464 9.78807 25871 ft 460 kts 158°
2026-04-22 07:09 44.58632 9.80869 25420 ft 456 kts 158°
2026-04-22 07:09 44.55813 9.82918 24787 ft 455 kts 158°
2026-04-22 07:09 44.53025 9.84944 24414 ft 448 kts 159°
2026-04-22 07:10 44.50274 9.86943 23689 ft 442 kts 159°
2026-04-22 07:10 44.47602 9.88887 22941 ft 434 kts 159°
2026-04-22 07:10 44.44968 9.90807 22417 ft 420 kts 159°
2026-04-22 07:10 44.42416 9.92667 21902 ft 407 kts 159°
2026-04-22 07:11 44.39939 9.94465 21388 ft 397 kts 159°
2026-04-22 07:11 44.37484 9.96233 20896 ft 397 kts 159°
2026-04-22 07:11 44.35019 9.97996 20399 ft 398 kts 159°
2026-04-22 07:11 44.32543 9.99767 19888 ft 401 kts 159°
2026-04-22 07:12 44.30054 10.01552 19388 ft 403 kts 159°
2026-04-22 07:12 44.27555 10.03347 18884 ft 405 kts 158°
2026-04-22 07:12 44.25042 10.05152 18372 ft 408 kts 158°
2026-04-22 07:12 44.22494 10.06868 17850 ft 403 kts 165°
2026-04-22 07:13 44.19858 10.07971 17473 ft 392 kts 172°
2026-04-22 07:13 44.17222 10.08916 17038 ft 389 kts 172°
2026-04-22 07:13 44.14615 10.09851 16667 ft 384 kts 172°
2026-04-22 07:13 44.12040 10.10778 16310 ft 380 kts 172°
2026-04-22 07:14 44.09486 10.11693 15880 ft 379 kts 172°
2026-04-22 07:14 44.06946 10.12598 15480 ft 373 kts 171°
2026-04-22 07:14 44.04444 10.13491 15025 ft 366 kts 171°
2026-04-22 07:14 44.02007 10.14381 14637 ft 358 kts 170°
2026-04-22 07:15 43.99624 10.15262 14193 ft 352 kts 170°
2026-04-22 07:15 43.97281 10.16128 13790 ft 345 kts 169°
2026-04-22 07:15 43.94989 10.16975 13388 ft 338 kts 169°
2026-04-22 07:15 43.92723 10.17810 13020 ft 336 kts 169°
2026-04-22 07:16 43.90465 10.18617 12638 ft 333 kts 173°
2026-04-22 07:16 43.88192 10.18973 12259 ft 327 kts 181°
2026-04-22 07:16 43.85924 10.19173 11879 ft 326 kts 181°
2026-04-22 07:16 43.83689 10.19383 11493 ft 327 kts 180°
2026-04-22 07:17 43.81414 10.19599 11100 ft 328 kts 180°
2026-04-22 07:17 43.79132 10.19813 10697 ft 328 kts 180°
2026-04-22 07:17 43.76897 10.20025 10293 ft 316 kts 179°
2026-04-22 07:17 43.74747 10.20231 9918 ft 303 kts 179°
2026-04-22 07:18 43.72705 10.20427 9829 ft 294 kts 179°
2026-04-22 07:18 43.70633 10.20619 9699 ft 301 kts 179°
2026-04-22 07:18 43.68544 10.20662 9560 ft 299 kts 190°
2026-04-22 07:18 43.66548 10.19980 9375 ft 294 kts 206°
2026-04-22 07:19 43.64792 10.18584 8943 ft 289 kts 221°
2026-04-22 07:19 43.63192 10.16913 8577 ft 288 kts 220°
2026-04-22 07:19 43.61597 10.15268 8274 ft 283 kts 220°
2026-04-22 07:19 43.60027 10.13663 7725 ft 280 kts 219°
2026-04-22 07:20 43.58466 10.12070 7090 ft 278 kts 219°
2026-04-22 07:20 43.56901 10.10510 6449 ft 278 kts 214°
2026-04-22 07:20 43.55074 10.09659 5821 ft 280 kts 184°
2026-04-22 07:20 43.53181 10.10058 5240 ft 275 kts 155°
2026-04-22 07:21 43.51746 10.11575 5008 ft 255 kts 125°
2026-04-22 07:21 43.50867 10.13605 4806 ft 242 kts 115°
2026-04-22 07:21 43.50114 10.15650 4597 ft 236 kts 112°
2026-04-22 07:21 43.49801 10.17786 4426 ft 224 kts 82°
2026-04-22 07:22 43.50169 10.19808 4246 ft 215 kts 63°
2026-04-22 07:22 43.50990 10.21473 4019 ft 207 kts 44°
2026-04-22 07:22 43.52088 10.22687 3774 ft 199 kts 37°
2026-04-22 07:22 43.53191 10.23813 3521 ft 197 kts 38°
2026-04-22 07:23 43.54282 10.24932 3274 ft 192 kts 38°
2026-04-22 07:23 43.55334 10.26009 3014 ft 185 kts 39°
2026-04-22 07:23 43.56346 10.27048 2760 ft 178 kts 38°
2026-04-22 07:23 43.57322 10.28049 2523 ft 172 kts 40°
2026-04-22 07:24 43.58266 10.29019 2290 ft 167 kts 40°
2026-04-22 07:24 43.59184 10.29962 2070 ft 163 kts 40°
2026-04-22 07:24 43.60080 10.30882 1841 ft 159 kts 40°
2026-04-22 07:24 43.60954 10.31780 1643 ft 154 kts 40°
2026-04-22 07:25 43.61778 10.32626 1441 ft 143 kts 40°
2026-04-22 07:25 43.62567 10.33438 1244 ft 140 kts 40°
2026-04-22 07:25 43.63337 10.34231 1055 ft 138 kts 40°
2026-04-22 07:25 43.64100 10.35017 857 ft 136 kts 40°
2026-04-22 07:26 43.64860 10.35799 687 ft 137 kts 40°
2026-04-22 07:26 43.65627 10.36578 514 ft 137 kts 40°
2026-04-22 07:26 43.66386 10.37371 317 ft 136 kts 40°
2026-04-22 07:26 43.67153 10.38160 137 ft 138 kts 41°
2026-04-22 07:27 43.67908 10.38938 21 ft 128 kts 42°
2026-04-22 07:27 43.68509 10.39566 18 ft 85 kts 37°
2026-04-22 07:27 43.68657 10.39704 22 ft 1 kts 134°
2026-04-22 07:27 43.68671 10.39746 19 ft 13 kts 35°
2026-04-22 07:28 43.68868 10.39936 19 ft 19 kts 36°
2026-04-22 07:28 43.68980 10.40050 19 ft 21 kts 36°
2026-04-22 07:28 43.69098 10.40170 20 ft 22 kts 37°
2026-04-22 07:29 43.69219 10.40292 20 ft 14 kts 31°
2026-04-22 07:29 43.69301 10.40258 18 ft 14 kts 308°
2026-04-22 07:29 43.69355 10.40158 22 ft 10 kts 307°
2026-04-22 07:29 43.69406 10.40103 22 ft 12 kts 341°
2026-04-22 07:30 43.69513 10.40081 16 ft 17 kts 353°
2026-04-22 07:30 43.69620 10.40059 15 ft 13 kts 352°
2026-04-22 07:30 43.69651 10.40058 17 ft 4 kts
2026-04-22 07:30 43.69658 10.40057 17 ft 1 kts 360°